Location: Karcze
(52.0945°N, 22.4786°E)
Time: 23:26:22
(UTC+00:00)

SHAONIAN XING - Visible Passes

Search period start: 29 November 2021 00:00
Search period end: 09 December 2021 00:00
Orbit: 468 x 490 km, 97.5° (Epoch: 29 November)

Date Brightness Start Highest point End Pass type
(mag) Time Alt. Az. Time Alt. Az. Time Alt. Az.
30 Nov ? 15:12:17 10° NW 15:13:22 11° WNW 15:14:28 10° WNW visible
04 Dec ? 15:00:31 10° NNW 15:02:27 14° WNW 15:04:23 10° W visible
07 Dec ? 15:16:29 10° NW 15:17:14 11° NW 15:17:59 10° WNW visible
